[[{"header":{"parameterUnit":"m.s-1","parameterCategory":1,"la1":30.2991,"la2":30.254,"lo1":-89.0895,"lo2":-89.0444,"dy":0.0017,"dx":0.0017,"nx":28,"ny":28,"refTime":"2023-08-08T03:00:00:Z","depth":0,"parameterNumber":2,"parameterNumberName":"U-component_of_WINDS"},"data":[0,0,0,0,0,0,0,0,0,0,0,0,0,0,0,0,0,0,0,0,0,0,0,0,0,0,0,0,0,0,0,0,0,0,0,0,0,0,0,0,0,0,0,0,0,0,0,0,0,0,0,0,0,0,0,0,0,0,2.4474,2.4473,0,2.4371,2.437,2.4369,2.4235,2.4233,2.4231,2.4229,2.4127,2.4126,2.4126,0,0,0,0,0,0,0,0,0,0,0,0,0,2.4555,2.4554,2.4474,2.4472,2.4471,2.4371,2.437,2.4368,2.4236,2.4233,2.423,2.4228,2.4127,2.4126,2.4126,0,0,0,0,0,0,0,0,0,0,0,0,0,2.4493,2.4554,2.4474,2.4393,2.4384,2.4372,2.437,2.4368,2.4236,2.4233,2.423,2.4227,2.4128,2.4127,2.4126,2.4185,0,0,2.4122,2.4122,0,0,0,0,0,0,0,0,2.4497,2.449,2.4406,2.4398,2.4389,2.4312,2.4361,2.4307,2.4237,2.4293,2.4229,2.4225,2.4192,2.4185,2.4173,2.418,2.4176,2.4122,2.4122,2.4121,2.4121,0,0,0,0,0,0,0,2.4501,2.4494,2.4433,2.4405,2.4395,2.4362,2.4349,2.435,2.4262,2.4288,2.4278,2.4267,2.4186,2.4175,2.417,2.4174,2.4122,2.4122,2.4121,2.4121,2.4221,2.4224,0,0,0,0,0,0,2.4517,2.4498,2.4436,2.443,2.4436,2.4363,2.4349,2.434,2.4261,2.4246,2.427,2.4261,2.4178,2.4171,2.4166,2.4227,2.4121,2.412,2.412,2.4218,2.4221,2.4225,0,0,0,0,0,0,2.452,2.4513,2.444,2.4461,2.445,2.4365,2.4357,2.434,2.4328,2.4248,2.4232,2.4274,2.4175,2.4167,2.418,2.4221,2.412,2.4119,2.4214,2.4219,2.4223,2.4352,0,0,0,0,0,0,2.4523,2.4515,2.4537,2.4463,2.4449,2.4457,2.4359,2.4341,2.4326,2.4314,2.4248,2.4234,2.4172,2.4182,2.4179,2.4218,2.4118,2.421,2.4216,2.4222,2.4343,2.436,2.4375,0,0,0,0,0,2.4526,2.4578,2.4538,2.4532,2.4474,2.4459,2.4451,2.4378,2.433,2.4351,2.4299,2.4236,2.4218,2.4185,2.418,2.422,2.4207,2.4214,2.4221,2.4336,2.4357,2.4375,0,0,0,0,0,0,2.4661,2.4567,2.4522,2.4552,2.4514,2.4437,2.4461,2.4403,2.438,2.4369,2.4281,2.4267,2.429,2.4256,2.4221,2.4271,2.4203,2.4209,2.4292,2.4311,2.4326,2.4333,2.4117,0,0,0,0,0,2.4694,2.4689,2.4608,2.4642,2.4625,2.4547,2.4538,2.4484,2.4442,2.4426,2.4375,2.4338,2.4323,2.4315,2.4298,2.4338,2.432,2.4363,2.4379,2.4392,2.4399,2.4414,2.4431,2.4249,2.4249,2.4249,0,0,2.4762,2.4711,2.4713,2.4668,2.4632,2.4629,2.4534,2.4536,2.4532,2.4427,2.4434,2.4396,2.4348,2.4374,2.4383,2.4346,2.4445,2.4402,2.4413,2.4412,2.4423,2.444,2.4456,2.4254,2.4253,2.4252,0,0,2.4884,2.4846,2.4868,2.4834,2.4781,2.4728,2.4734,2.4664,2.4634,2.464,2.456,2.4555,2.4533,2.45,2.4481,2.4589,2.4528,2.4586,2.4668,2.4684,2.4698,2.471,2.4745,2.4759,2.4593,2.4593,2.4593,0,2.4976,2.4967,2.4888,2.4892,2.4874,2.4777,2.4798,2.4769,2.4714,2.4703,2.4664,2.4631,2.4592,2.4607,2.4633,2.4622,2.4624,2.4592,2.4702,2.4714,2.4724,2.4756,2.477,2.46,2.4599,2.4599,2.4598,0,2.5081,2.5076,2.5101,2.5047,2.5032,2.5045,2.4967,2.4961,2.4909,2.486,2.4866,2.4816,2.4785,2.4785,2.4736,2.4792,2.4771,2.4719,2.4647,2.475,2.4778,2.4791,2.461,2.4608,2.4606,2.4604,0,0,2.5285,2.5186,2.5196,2.5169,2.5102,2.5097,2.5106,2.5073,2.5068,2.5034,2.5037,2.5019,2.4968,2.4947,2.4893,2.4907,2.4991,2.4851,2.4849,2.4877,2.5047,2.5085,2.5101,2.4952,2.4954,2.4955,2.505,0,2.5392,2.5399,2.5327,2.5354,2.5347,2.5254,2.5261,2.5221,2.5175,2.5163,2.5113,2.51,2.5036,2.5021,2.5032,2.4979,2.5024,2.4972,2.4952,2.4953,2.4964,2.5117,2.5158,2.525,2.5061,2.5063,2.5065,0,2.5518,2.5487,2.5513,2.5442,2.5437,2.5444,2.5407,2.5397,2.5349,2.5315,2.5289,2.5226,2.5229,2.5163,2.5164,2.5129,2.5117,2.509,2.5092,2.5085,2.5013,2.5112,2.5278,2.5291,2.5082,2.5081,2.508,0,2.566,2.5626,2.5635,2.5616,2.5535,2.5542,2.5508,2.5457,2.5441,2.541,2.5398,2.5369,2.5352,2.5329,2.5259,2.5218,2.5267,2.5196,2.5237,2.5239,2.525,2.525,2.5414,2.5248,2.5247,2.5247,2.5247,0,2.5785,2.5804,2.5698,2.5704,2.5721,2.5638,2.5658,2.5616,2.557,2.5566,2.5485,2.5483,2.5392,2.5379,2.5324,2.5331,2.5325,2.5296,2.5281,2.5302,2.5305,2.5291,2.5282,2.5251,2.525,2.5249,2.5248,0,2.5946,2.5876,2.588,2.5802,2.5783,2.5799,2.5732,2.5734,2.5683,2.5678,2.5672,2.5592,2.5572,2.5501,2.5465,2.5428,2.5451,2.5424,2.5467,2.5456,2.55,2.5496,2.5658,2.5674,2.5501,2.5503,2.5505,0,2.6029,2.6041,2.5964,2.5954,2.5924,2.5911,2.5893,2.5812,2.5797,2.5742,2.575,2.5724,2.5698,2.5671,2.5609,2.558,2.555,2.5609,2.5545,2.5564,2.5547,2.5546,2.5545,2.5622,2.5624,2.5626,2.5628,0,2.6184,2.6148,2.6126,2.6091,2.6073,2.6042,2.6007,2.6004,2.5913,2.5901,2.5879,2.5859,2.582,2.5794,2.5754,2.5719,2.5658,2.5649,2.5656,2.5676,2.5699,2.5684,2.5501,2.5645,2.5643,2.5642,2.5641,2.564,2.6305,2.631,2.6256,2.6233,2.6198,2.6166,2.6163,2.6111,2.6091,2.6052,2.6005,2.5988,2.5938,2.5878,2.5847,2.5832,2.5799,2.5811,2.5813,2.5816,2.5825,2.5704,2.5825,2.5825,2.5824,2.5824,2.5823,0,2.6453,2.6413,2.6393,2.6345,2.6327,2.627,2.6228,2.6216,2.6202,2.616,2.6135,2.6109,2.6082,2.6018,2.5986,2.5986,2.5957,2.598,2.5978,2.597,2.5858,2.5854,2.6004,2.6004,2.6004,2.6004,2.6004,2.6004,2.6527,2.6531,2.6488,2.6474,2.6433,2.6415,2.6395,2.6365,2.633,2.6303,2.6281,2.6239,2.6187,2.6149,2.6122,2.6104,2.6094,2.6126,2.6099,2.5996,2.5978,2.5962,2.5957,2.6126,2.6126,2.6211,2.6212,2.6212]},{"header":{"parameterUnit":"m.s-1","parameterCategory":1,"la1":30.2991,"la2":30.254,"lo1":-89.0895,"lo2":-89.0444,"dy":0.0017,"dx":0.0017,"nx":28,"ny":28,"refTime":"2023-08-08T03:00:00:Z","depth":0,"parameterNumber":3,"parameterNumberName":"V-component_of_WINDS"},"data":[0,0,0,0,0,0,0,0,0,0,0,0,0,0,0,0,0,0,0,0,0,0,0,0,0,0,0,0,0,0,0,0,0,0,0,0,0,0,0,0,0,0,0,0,0,0,0,0,0,0,0,0,0,0,0,0,0,0,7.2239,7.2239,0,7.2314,7.2315,7.2315,7.2267,7.2265,7.2263,7.2261,7.2331,7.2335,7.2339,0,0,0,0,0,0,0,0,0,0,0,0,0,7.2046,7.205,7.2238,7.2239,7.224,7.2314,7.2315,7.2316,7.2268,7.2265,7.2262,7.226,7.233,7.2335,7.2339,0,0,0,0,0,0,0,0,0,0,0,0,0,7.2126,7.2051,7.2238,7.2225,7.2225,7.2313,7.2315,7.2316,7.2268,7.2265,7.2262,7.2258,7.2328,7.2334,7.234,7.2443,0,0,7.2358,7.2361,0,0,0,0,0,0,0,0,7.2121,7.2133,7.2226,7.2227,7.2226,7.2278,7.2272,7.2358,7.2269,7.2252,7.2261,7.2257,7.2316,7.2322,7.2344,7.2446,7.2449,7.2359,7.2362,7.2365,7.2366,0,0,0,0,0,0,0,7.2116,7.2129,7.2268,7.2228,7.2228,7.2213,7.2221,7.2288,7.2301,7.2253,7.225,7.226,7.2315,7.2338,7.2345,7.2451,7.2358,7.2364,7.2367,7.237,7.2638,7.2642,0,0,0,0,0,0,7.2112,7.2125,7.2266,7.227,7.2165,7.222,7.2228,7.2265,7.23,7.2303,7.2262,7.2257,7.233,7.2338,7.2347,7.2468,7.2365,7.237,7.2374,7.2635,7.2639,7.2643,0,0,0,0,0,0,7.2109,7.2125,7.2263,7.2197,7.2213,7.2227,7.2268,7.2268,7.2291,7.2308,7.2309,7.2284,7.2327,7.2339,7.2419,7.247,7.2373,7.2378,7.263,7.2636,7.2641,7.2712,0,0,0,0,0,0,7.2103,7.2124,7.2166,7.2198,7.2217,7.2336,7.2271,7.2272,7.2302,7.2296,7.2328,7.233,7.2326,7.2411,7.2425,7.2476,7.2383,7.2626,7.2633,7.2639,7.2705,7.2719,7.2731,0,0,0,0,0,7.2097,7.2182,7.2168,7.2185,7.2269,7.2339,7.2349,7.2344,7.2306,7.2346,7.2357,7.2329,7.2463,7.242,7.2435,7.2489,7.2623,7.2631,7.2639,7.2699,7.2716,7.2731,0,0,0,0,0,0,7.2152,7.2186,7.2171,7.227,7.2302,7.2331,7.2381,7.2363,7.2405,7.2397,7.2386,7.2394,7.2478,7.2491,7.2443,7.2589,7.2536,7.2548,7.2577,7.2593,7.2606,7.2599,7.2388,0,0,0,0,0,7.2177,7.2233,7.2258,7.2343,7.236,7.2368,7.2398,7.2391,7.2424,7.2436,7.2453,7.2483,7.2531,7.2563,7.2609,7.2707,7.2712,7.2752,7.2765,7.2775,7.2784,7.2835,7.2852,7.2669,7.2669,7.2669,0,0,7.2226,7.2252,7.2288,7.2355,7.2379,7.2434,7.238,7.2442,7.2482,7.2445,7.2522,7.2535,7.2568,7.2657,7.2697,7.2671,7.2836,7.2786,7.2794,7.2797,7.2845,7.2862,7.2877,7.2675,7.2674,7.2673,0,0,7.2345,7.2372,7.2444,7.2469,7.2507,7.2512,7.253,7.2561,7.2569,7.2646,7.2619,7.2666,7.275,7.2774,7.2797,7.2924,7.2899,7.2939,7.3006,7.3055,7.3069,7.3082,7.3124,7.314,7.2949,7.2949,7.2949,0,7.2401,7.2487,7.2483,7.2546,7.2575,7.2547,7.2618,7.2642,7.2692,7.2711,7.2682,7.2786,7.2807,7.29,7.2931,7.2952,7.2968,7.2934,7.3068,7.3081,7.3092,7.3132,7.3149,7.2954,7.2953,7.2953,7.2952,0,7.2553,7.2612,7.2665,7.2716,7.2751,7.2819,7.2822,7.2857,7.2847,7.2854,7.2932,7.2955,7.3004,7.3026,7.3016,7.3117,7.3099,7.307,7.3016,7.3114,7.3151,7.3167,7.296,7.2958,7.2957,7.2956,0,0,7.2708,7.2756,7.2775,7.2797,7.2836,7.288,7.2945,7.2995,7.3024,7.3059,7.3111,7.3183,7.3155,7.3181,7.3174,7.3218,7.3313,7.3182,7.3182,7.3203,7.3422,7.3442,7.346,7.3298,7.3301,7.3303,7.3418,0,7.2827,7.2942,7.2939,7.3045,7.3097,7.3071,7.3126,7.3155,7.3163,7.3207,7.3215,7.3265,7.3226,7.3242,7.3284,7.3293,7.3356,7.3285,7.3342,7.3345,7.3333,7.348,7.3502,7.3609,7.3433,7.3435,7.3437,0,7.2981,7.3023,7.3134,7.3164,7.3186,7.3237,7.328,7.3324,7.3355,7.3358,7.3387,7.3373,7.3435,7.3382,7.3466,7.3417,7.344,7.3448,7.3452,7.3455,7.3395,7.3484,7.3644,7.3659,7.3461,7.3459,7.3457,0,7.3079,7.3163,7.324,7.326,7.3298,7.3333,7.335,7.3378,7.3408,7.3445,7.3464,7.3508,7.3531,7.3565,7.3561,7.3524,7.3646,7.3593,7.3647,7.3647,7.3671,7.3669,7.3834,7.3692,7.3691,7.3691,7.3691,0,7.3211,7.3279,7.3285,7.3332,7.3407,7.3402,7.3475,7.3488,7.3513,7.356,7.354,7.3583,7.3578,7.3621,7.3619,7.3687,7.3698,7.37,7.3698,7.37,7.37,7.3714,7.3705,7.3695,7.3694,7.3694,7.3693,0,7.3332,7.334,7.3421,7.345,7.3459,7.3513,7.3536,7.3579,7.3586,7.3645,7.3659,7.3668,7.3718,7.3719,7.3775,7.3774,7.3856,7.3847,7.3846,7.3843,7.3896,7.389,7.4073,7.4095,7.3941,7.3943,7.3944,0,7.3415,7.3467,7.3502,7.3533,7.3552,7.3602,7.3632,7.3629,7.366,7.3699,7.3737,7.3785,7.3823,7.3904,7.3914,7.3956,7.3946,7.4008,7.3952,7.3952,7.3944,7.394,7.3943,7.4018,7.4019,7.4021,7.4022,0,7.3559,7.3559,7.3605,7.3651,7.3688,7.3723,7.3756,7.3782,7.3782,7.3818,7.387,7.39,7.3958,7.4005,7.4046,7.406,7.404,7.404,7.4054,7.4055,7.4051,7.4051,7.3872,7.4035,7.4033,7.4032,7.4032,7.4031,7.3661,7.3705,7.3737,7.3787,7.3812,7.3843,7.3884,7.3896,7.394,7.3988,7.3983,7.4039,7.4067,7.412,7.4138,7.4181,7.4159,7.418,7.4185,7.419,7.4194,7.4047,7.4188,7.4188,7.4188,7.4187,7.4187,0,7.3801,7.382,7.3867,7.3914,7.3953,7.3934,7.3969,7.4001,7.4052,7.4081,7.4119,7.4177,7.4222,7.4236,7.4279,7.431,7.4302,7.4321,7.4317,7.432,7.4212,7.4195,7.4327,7.4327,7.4327,7.4327,7.4327,7.4327,7.3879,7.3952,7.3956,7.404,7.4057,7.4114,7.4135,7.4163,7.4185,7.4251,7.4289,7.4299,7.4321,7.4365,7.4405,7.4407,7.4423,7.4446,7.4444,7.4342,7.4328,7.4315,7.4298,7.445,7.445,7.4548,7.4549,7.455]}]]